Terminal Aerodrome Forecast
Issued by NWS Chicago, IL

Home | Current Version | Previous Version | Text Only | Print | Product List | Glossary Off
Versions: 1 2 3 4 5 6 7 8 9 10 11 12 13 14 15 16 17 18 19 20 21 22 23 24 25 26 27 28 29 30 31 32 33 34 35 36 37

000
FTUS43 KLOT 261700
TAFRFD
TAF
KRFD 261729Z 2618/2718 17008KT 4SM -SN BR SCT015 OVC025
      TEMPO 2618/2620 1SM -SN BR SCT007 OVC010
     FM270000 15005KT 5SM -SN BR OVC008 PROB30 2703/2706 -FZDZ
     FM270700 04004KT 5SM BR OVC006
     FM271600 05007KT P6SM OVC015=

USA.gov is the U.S. government's official web portal to all federal, state and local government web resources and services.